Weather History for ENRY - February, 2013

Change the Weather History Date:

Sunday, February 10, 2013

  Actual Average Record
Temperature  
Mean Temperature 20 °F -  
Max Temperature 22 °F 35 °F 48 °F (2015)
Min Temperature 18 °F 24 °F 5 °F (1999)
Degree Days  
Heating Degree Days 45    
Moisture  
Dew Point 17 °F    
Average Humidity 87    
Maximum Humidity 93    
Minimum Humidity 81    
Precipitation  
Precipitation 0.00 in - - ()
Sea Level Pressure  
Sea Level Pressure 30.08 in    
Wind  
Wind Speed 8 mph ()    
Max Wind Speed 12 mph    
Max Gust Speed -    
Visibility 6.2 miles    
Events Rain , Snow    
Averages and records for this station are not official NWS values.
T = Trace of Precipitation, MM = Missing Value Source: Averaged Metar Reports

Daily Weather History Graph

Daily Weather History Graph

Search for Another Location

Airport or City:

Trip Planner

Search our weather history database for the weather conditions in past years. The results will help you decide how hot, cold, wet, or windy it might be!

Date:

Astronomy

Feb. 10, 2013 Rise Set
Actual Time 8:05 AM CET 4:57 PM CET
Civil Twilight 7:21 AM CET 5:41 PM CET
Nautical Twilight 6:33 AM CET 6:30 PM CET
Astronomical Twilight 5:46 AM CET 7:17 PM CET
Moon 7:30 AM CET (2/10) 5:50 PM CET (2/10)
Length of Visible Light 10h 20m
Length of Day
8h 52m
New Moon, 0% of the Moon is Illuminated
Feb 10
New Moon
Feb 17
First Quarter
Feb 25
Full
Mar 4
Last Quarter
Mar 11
New

Hourly Weather History & Observations

Time (CET) Temp. Windchill Dew Point Humidity Pressure Visibility Wind Dir Wind Speed Gust Speed Precip Events Conditions
12:20 AM 17.6 °F 5.7 °F 15.8 °F 93% 30.09 in 1.2 mi North 10.4 mph - N/A Snow Light Snow
12:50 AM 17.6 °F 5.7 °F 15.8 °F 93% 30.09 in 1.9 mi NNE 10.4 mph - N/A Snow Light Snow
1:00 AM 18 °F - 16 °F 90% 30.13 in 2 mi NNE 11.2 mph - - Snow Light Snow
1:20 AM 19.4 °F 7.9 °F 15.8 °F 86% 30.09 in - NNE 10.4 mph - N/A Snow Light Snow
1:50 AM 17.6 °F 5.7 °F 15.8 °F 93% 30.09 in 1.2 mi North 10.4 mph - N/A Snow Light Snow
2:20 AM 17.6 °F 5.7 °F 15.8 °F 93% 30.09 in 2.2 mi North 10.4 mph - N/A Snow Light Snow
2:50 AM 17.6 °F 5.7 °F 15.8 °F 93% 30.09 in 3.7 mi North 10.4 mph - N/A Snow Light Snow
3:20 AM 19.4 °F 8.6 °F 15.8 °F 86% 30.09 in - North 9.2 mph - N/A Snow Light Snow
3:50 AM 19.4 °F 8.6 °F 15.8 °F 86% 30.09 in 6.2 mi North 9.2 mph - N/A   Overcast
4:20 AM 19.4 °F 7.2 °F 15.8 °F 86% 30.09 in 6.2 mi North 11.5 mph - N/A Snow Snow Grains
4:50 AM 19.4 °F 7.9 °F 15.8 °F 86% 30.09 in 6.2 mi North 10.4 mph - N/A   Overcast
5:20 AM 19.4 °F 7.2 °F 15.8 °F 86% 30.09 in 6.2 mi North 11.5 mph - N/A   Overcast
5:50 AM 19.4 °F 7.9 °F 15.8 °F 86% 30.09 in 6.2 mi North 10.4 mph - N/A Snow Snow Grains
6:20 AM 19.4 °F 8.6 °F 15.8 °F 86% 30.09 in 6.2 mi North 9.2 mph - N/A Snow Light Snow
6:50 AM 19.4 °F 9.5 °F 15.8 °F 86% 30.09 in 6.2 mi North 8.1 mph - N/A   Mostly Cloudy
7:00 AM 19 °F - 17 °F 88% 30.12 in 12 mi North 6.7 mph - - Rain Light Freezing Rain
7:20 AM 19.4 °F 9.5 °F 17.6 °F 93% 30.09 in 6.2 mi North 8.1 mph - N/A Snow Light Snow
7:50 AM 19.4 °F 8.6 °F 15.8 °F 86% 30.09 in 6.2 mi North 9.2 mph - N/A Snow Light Snow
8:20 AM 19.4 °F 9.5 °F 15.8 °F 86% 30.09 in 6.2 mi North 8.1 mph - N/A   Mostly Cloudy
8:50 AM 19.4 °F 9.5 °F 15.8 °F 86% 30.09 in 6.2 mi North 8.1 mph - N/A   Mostly Cloudy
9:20 AM 19.4 °F 8.6 °F 15.8 °F 86% 30.09 in 6.2 mi North 9.2 mph - N/A   Mostly Cloudy
9:50 AM 19.4 °F 8.6 °F 15.8 °F 86% 30.09 in 6.2 mi NNE 9.2 mph - N/A   Mostly Cloudy
10:20 AM 19.4 °F 9.5 °F 15.8 °F 86% 30.09 in 6.2 mi NNE 8.1 mph - N/A Snow Light Snow
10:50 AM 19.4 °F 8.6 °F 15.8 °F 86% 30.09 in 6.2 mi NNE 9.2 mph - N/A   Mostly Cloudy
11:20 AM 19.4 °F 9.5 °F 15.8 °F 86% 30.09 in 6.2 mi NNE 8.1 mph - N/A   Mostly Cloudy
11:50 AM 21.2 °F 10.9 °F 17.6 °F 86% 30.09 in 6.2 mi NNE 9.2 mph - N/A   Overcast
12:20 PM 21.2 °F 11.7 °F 17.6 °F 86% 30.06 in 6.2 mi North 8.1 mph - N/A   Overcast
12:50 PM 21.2 °F 12.6 °F 17.6 °F 86% 30.06 in 6.2 mi NNE 6.9 mph - N/A   Overcast
1:00 PM 21 °F - 18 °F 81% 30.10 in 16 mi NNE 6.7 mph - -   Clear
1:20 PM 21.2 °F 11.7 °F 17.6 °F 86% 30.06 in 6.2 mi NNE 8.1 mph - N/A   Overcast
1:50 PM 21.2 °F 11.7 °F 17.6 °F 86% 30.06 in 6.2 mi NE 8.1 mph - N/A   Overcast
2:20 PM 21.2 °F 13.6 °F 17.6 °F 86% 30.06 in 6.2 mi NNE 5.8 mph - N/A   Mostly Cloudy
2:50 PM 21.2 °F 13.6 °F 17.6 °F 86% 30.06 in 6.2 mi NNE 5.8 mph - N/A   Mostly Cloudy
3:20 PM 21.2 °F 14.9 °F 17.6 °F 86% 30.06 in 6.2 mi NNE 4.6 mph - N/A   Mostly Cloudy
3:50 PM 21.2 °F 14.9 °F 17.6 °F 86% 30.06 in 6.2 mi NNE 4.6 mph - N/A   Mostly Cloudy
4:20 PM 21.2 °F 12.6 °F 17.6 °F 86% 30.04 in 6.2 mi NNE 6.9 mph - N/A   Mostly Cloudy
4:50 PM 21.2 °F 12.6 °F 17.6 °F 86% 30.04 in 6.2 mi NE 6.9 mph - N/A   Mostly Cloudy
5:20 PM 21.2 °F 13.6 °F 17.6 °F 86% 30.04 in 6.2 mi NE 5.8 mph - N/A   Mostly Cloudy
5:50 PM 21.2 °F - 17.6 °F 86% 30.06 in 6.2 mi Calm Calm - N/A   Mostly Cloudy
6:20 PM 21.2 °F 16.4 °F 17.6 °F 86% 30.06 in 6.2 mi North 3.5 mph - N/A   Mostly Cloudy
6:50 PM 21.2 °F 14.9 °F 17.6 °F 86% 30.06 in 6.2 mi North 4.6 mph - N/A   Mostly Cloudy
7:00 PM 22 °F - 19 °F 81% 30.08 in 16 mi North 4.5 mph - -   Partly Cloudy
7:20 PM 21.2 °F 13.6 °F 17.6 °F 86% 30.06 in 6.2 mi North 5.8 mph - N/A   Mostly Cloudy
7:50 PM 21.2 °F 13.6 °F 17.6 °F 86% 30.06 in 6.2 mi North 5.8 mph - N/A   Mostly Cloudy
8:20 PM 21.2 °F 12.6 °F 17.6 °F 86% 30.06 in 6.2 mi North 6.9 mph - N/A   Mostly Cloudy
8:50 PM 21.2 °F 14.9 °F 17.6 °F 86% 30.06 in 6.2 mi NNE 4.6 mph - N/A   Mostly Cloudy
9:20 PM 21.2 °F 13.6 °F 17.6 °F 86% 30.06 in 6.2 mi North 5.8 mph - N/A   Mostly Cloudy
9:50 PM 21.2 °F 14.9 °F 17.6 °F 86% 30.06 in 6.2 mi NNE 4.6 mph - N/A   Mostly Cloudy
10:20 PM 21.2 °F 13.6 °F 17.6 °F 86% 30.06 in 6.2 mi North 5.8 mph - N/A Snow Light Snow
10:50 PM 21.2 °F 16.4 °F 17.6 °F 86% 30.06 in 6.2 mi North 3.5 mph - N/A Snow Light Snow
11:20 PM 21.2 °F 13.6 °F 17.6 °F 86% 30.06 in 6.2 mi North 5.8 mph - N/A   Mostly Cloudy
11:50 PM 21.2 °F 12.6 °F 17.6 °F 86% 30.06 in 6.2 mi North 6.9 mph - N/A   Mostly Cloudy